Location: LDNL
(36.4545°S, 141.6685°E)
Time: 11:48:58
(UTC+10:00)

Oscar 11 - Pass Details

Date: 27 May 2022
Orbit: 613 x 622 km, 97.6° (Epoch: 29 June)

Event Time Altitude Azimuth Distance (km) Brightness Sun altitude
Rises 17:56:00 0° 175° (S) 2,930 10.3 -5.9°
Reaches altitude 10° 17:58:16 10° 180° (S) 2,014 9.5 -6.4°
Maximum altitude 18:02:29 47° 254° (WSW) 825 8.2 -7.2°
Drops below altitude 10° 18:06:37 10° 328° (NNW) 1,981 10.5 -7.9°
Sets 18:08:50 0° 333° (NNW) 2,876 11.3 -8.4°
